Tracking 35275 objects as of 8-Sep-2026
HD Live streaming from Space Station
objects crossing your sky now

STARLINK-32739

Track STARLINK-32739 now!
10-day predictions
STARLINK-32739 is classified as:


NORAD ID: 62498
Int'l Code: 2025-003M
Launch date: January 6, 2025
Source: United States (US)
Launch site: AIR FORCE EASTERN TEST RANGE (AFETR)
Your satellite tracking list
Your tracking list is empty




NASA's NSSDC Master Catalog

Two Line Element Set (TLE):
1 62498U 25003M   26250.34532778  .00006121  00000-0  23175-3 0  9994
2 62498  42.9993 343.0549 0002447 279.0359  81.0215 15.27582407 94402
Source of the keplerian elements: AFSPC